| time (UTC) | temp C | wind direction | speed KPH | gust KPH | rain 1hr cm | rain 24hr cm | rain mn cm | humidity % | barometer mb |
| 20260503054528 | 3 | 226 | 3.2 | 4.8 | 0.00 | 0.00 | 0.00 | 61 | 1017.4 |
| 20260503053004 | 3 | 233 | 1.6 | 4.8 | 0.00 | 0.00 | 0.00 | 61 | 1017.4 |
| 20260503051512 | 2 | 238 | 1.6 | 4.8 | 0.00 | 0.00 | 0.00 | 62 | 1017.5 |
| 20260503050016 | 3 | 256 | 0.0 | 0.0 | 0.00 | 0.00 | 0.00 | 64 | 1017.6 |
| 20260503044540 | 3 | 241 | 1.6 | 3.2 | 0.00 | 0.00 | 0.00 | 63 | 1017.7 |
| 20260503043039 | 3 | 259 | 1.6 | 3.2 | 0.00 | 0.00 | 0.00 | 64 | 1017.7 |
| 20260503041508 | 3 | 244 | 1.6 | 4.8 | 0.00 | 0.00 | 0.00 | 64 | 1017.6 |
| 20260503040012 | 3 | 264 | 0.0 | 0.0 | 0.00 | 0.00 | 0.00 | 64 | 1017.7 |
| 20260503034522 | 3 | 263 | 0.0 | 3.2 | 0.00 | 0.00 | 0.00 | 63 | 1017.7 |
| 20260503033022 | 2 | 300 | 0.0 | 0.0 | 0.00 | 0.00 | 0.00 | 63 | 1017.7 |
| 20260503031529 | 2 | 300 | 0.0 | 0.0 | 0.00 | 0.00 | 0.00 | 66 | 1017.8 |
| 20260503030029 | 2 | 300 | 0.0 | 0.0 | 0.00 | 0.00 | 0.00 | 63 | 1017.9 |
| 20260503024515 | 3 | 300 | 0.0 | 0.0 | 0.00 | 0.00 | 0.00 | 62 | 1017.9 |
| 20260503023020 | 2 | 300 | 0.0 | 1.6 | 0.00 | 0.00 | 0.00 | 62 | 1017.9 |
| 20260503021522 | 3 | 300 | 0.0 | 1.6 | 0.00 | 0.00 | 0.00 | 60 | 1017.9 |
| 20260503020028 | 3 | 300 | 0.0 | 1.6 | 0.00 | 0.00 | 0.00 | 61 | 1017.8 |
| 20260503014528 | 4 | 307 | 0.0 | 0.0 | 0.00 | 0.00 | 0.00 | 58 | 1017.8 |
| 20260503013014 | 5 | 307 | 0.0 | 0.0 | 0.00 | 0.00 | 0.00 | 56 | 1017.7 |
| 20260503011523 | 6 | 308 | 0.0 | 1.6 | 0.00 | 0.00 | 0.00 | 52 | 1017.7 |
| 20260503010031 | 6 | 305 | 1.6 | 4.8 | 0.00 | 0.00 | 0.00 | 53 | 1017.6 |
| 20260503004528 | 7 | 302 | 3.2 | 11.3 | 0.00 | 0.00 | 0.00 | 50 | 1017.5 |
| 20260503003010 | 7 | 297 | 8.0 | 14.5 | 0.00 | 0.00 | 0.00 | 45 | 1017.5 |
| 20260503001527 | 8 | 313 | 8.0 | 22.5 | 0.00 | 0.00 | 0.00 | 43 | 1017.3 |
| 20260503000003 | 8 | 274 | 9.7 | 17.7 | 0.00 | 0.00 | 0.00 | 46 | 1017.3 |
| 20260502234506 | 9 | 281 | 8.0 | 17.7 | 0.00 | 0.00 | 0.00 | 45 | 1017.2 |
| 20260502233008 | 9 | 319 | 9.7 | 20.9 | 0.00 | 0.00 | 0.00 | 41 | 1017.3 |
| 20260502231532 | 9 | 317 | 6.4 | 25.7 | 0.00 | 0.00 | 0.00 | 47 | 1017.2 |
| 20260502230020 | 10 | 277 | 6.4 | 12.9 | 0.00 | 0.00 | 0.00 | 45 | 1017.2 |
| 20260502224502 | 9 | 314 | 4.8 | 16.1 | 0.00 | 0.00 | 0.00 | 44 | 1017.3 |
| 20260502223022 | 9 | 300 | 6.4 | 19.3 | 0.00 | 0.00 | 0.00 | 43 | 1017.3 |
| 20260502221513 | 10 | 303 | 8.0 | 12.9 | 0.00 | 0.00 | 0.00 | 45 | 1017.3 |
| 20260502220016 | 8 | 337 | 8.0 | 16.1 | 0.00 | 0.00 | 0.00 | 46 | 1017.5 |
| 20260502214520 | 8 | 332 | 9.7 | 17.7 | 0.00 | 0.00 | 0.00 | 46 | 1017.4 |
| 20260502213004 | 10 | 327 | 3.2 | 16.1 | 0.00 | 0.00 | 0.00 | 50 | 1017.5 |
| 20260502211510 | 8 | 18 | 9.7 | 19.3 | 0.00 | 0.00 | 0.00 | 48 | 1017.5 |
| 20260502210014 | 8 | 287 | 3.2 | 16.1 | 0.00 | 0.00 | 0.00 | 50 | 1017.6 |
| 20260502204518 | 8 | 297 | 9.7 | 16.1 | 0.00 | 0.00 | 0.00 | 52 | 1017.8 |
| 20260502203022 | 8 | 287 | 9.7 | 16.1 | 0.00 | 0.00 | 0.00 | 51 | 1017.8 |
| 20260502201525 | 8 | 329 | 6.4 | 12.9 | 0.00 | 0.00 | 0.00 | 50 | 1018.0 |
| 20260502200008 | 8 | 341 | 8.0 | 16.1 | 0.00 | 0.00 | 0.00 | 49 | 1018.2 |
| 20260502194515 | 8 | 291 | 8.0 | 14.5 | 0.00 | 0.00 | 0.00 | 48 | 1018.4 |
| 20260502193021 | 8 | 299 | 8.0 | 11.3 | 0.00 | 0.00 | 0.00 | 46 | 1018.4 |
| 20260502191529 | 8 | 331 | 11.3 | 19.3 | 0.00 | 0.00 | 0.00 | 50 | 1018.5 |
| 20260502190038 | 7 | 300 | 9.7 | 17.7 | 0.00 | 0.00 | 0.00 | 50 | 1018.6 |
| 20260502184514 | 8 | 326 | 4.8 | 12.9 | 0.00 | 0.00 | 0.00 | 52 | 1018.6 |
| 20260502183018 | 7 | 300 | 9.7 | 20.9 | 0.00 | 0.00 | 0.00 | 50 | 1018.8 |
| 20260502181525 | 8 | 8 | 9.7 | 17.7 | 0.00 | 0.00 | 0.00 | 50 | 1018.8 |
| 20260502163028 | 6 | 345 | 11.3 | 17.7 | 0.00 | 0.00 | 0.00 | 54 | 1019.5 |
| 20260502161514 | 7 | 304 | 14.5 | 22.5 | 0.00 | 0.00 | 0.00 | 56 | 1019.5 |
| 20260502151554 | 6 | 293 | 9.7 | 19.3 | 0.00 | 0.00 | 0.00 | 60 | 1019.6 |
| 20260502123029 | 2 | 355 | 3.2 | 19.3 | 0.00 | 0.10 | 0.00 | 72 | 1019.1 |
| 20260502121526 | 2 | 311 | 4.8 | 14.5 | 0.00 | 0.18 | 0.00 | 75 | 1019.3 |
| 20260502114514 | 0 | 321 | 3.2 | 9.7 | 0.00 | 0.20 | 0.00 | 79 | 1019.1 |
| 20260502113027 | 0 | 311 | 4.8 | 8.0 | 0.00 | 0.20 | 0.00 | 80 | 1018.9 |
| 20260502111523 | 0 | 323 | 4.8 | 6.4 | 0.00 | 0.20 | 0.00 | 81 | 1018.7 |
| 20260502110034 | -1 | 313 | 3.2 | 6.4 | 0.00 | 0.20 | 0.00 | 81 | 1018.7 |
| 20260502104509 | -1 | 304 | 4.8 | 8.0 | 0.00 | 0.23 | 0.00 | 81 | 1018.6 |
| 20260502103012 | -1 | 313 | 4.8 | 6.4 | 0.00 | 0.23 | 0.00 | 81 | 1018.5 |
| 20260502101518 | -1 | 307 | 3.2 | 6.4 | 0.00 | 0.23 | 0.00 | 80 | 1018.4 |
| 20260502091514 | 0 | 309 | 3.2 | 4.8 | 0.00 | 0.25 | 0.00 | 78 | 1018.3 |
| 20260502071528 | 0 | 314 | 3.2 | 6.4 | 0.00 | 0.56 | 0.00 | 72 | 1018.2 |
| 20260502070039 | 0 | 314 | 3.2 | 6.4 | 0.00 | 0.58 | 0.00 | 72 | 1018.3 |
| 20260502064520 | 0 | 318 | 3.2 | 9.7 | 0.00 | 0.66 | 0.00 | 71 | 1018.3 |